Showing default

TIANLIAN-2 05, 63662

Orbit data source: Space-Track

TIANLIAN-2 05, 63662 is a payload satellite owned by CAST (CN) in GEO that was launched on Sun, 27 Apr 2025 UTC via a CHANG ZHENG 3B launch vehicle from the Xichang Space Center, China (XSC). Payload-class satellites include a variety of spacecraft equipped with specific instruments for various scientific and technological missions. These include communications satellites like Starlink; space stations such as the ISS; scientific satellites like the Hubble; Earth observation satellites from companies like Planet Labs, Umbra, and HawkEye 360; GPS; miniature CubeSats for education and research; and military/defense satellites.

Not visible in the next 10 days
Identifier
63662, 2025-084A
Orbit
GEO
Country
Flag of CNCN / PRC
Related business
Manufacturer
CAST
Mission
Operational Civil Communications
Bus & Motor
DFH-4, FY-25
Mass
~5,000 kg wet, ~2,000 kg dry
Launch date (UTC)
2025-04-27 (1 year ago)
Launch vehicle
CHANG ZHENG 3B
Launch site
Xichang Space Center, China (XSC)
Object type
Payload
Rocket body
Debris
Shape & HBR
Box + 2 Pan + 1 Dish, 10.0 m
Radar Cross Section
40.604 m², Large (>1 m²)

Expand to show TLE details & history
Last TLE update: 9 hours ago

TLE from 9 hours ago
0 TIANLIAN-2 05
1 63662U 25084A   26127.19313875  .00000128  00000-0  00000-0 0  9998
2 63662   4.5561 280.2986 0003726 126.8093 267.8898  1.00272424  3977
Epoch: 2026-05-07T04:38Z
TLE epoch observation values (Epoch: 2026-05-07T04:38:07.187Z)
Latitude
2.60517°
Longitude
20.28184°
Altitude
35,786.207 km
Speed
3.075 km/s
True Right ascension
20h 59m 25s
True Declination
2° 36' 09"
Sunlit
Object was in daylight at epoch
Visualization orbit readout
Latitude
Unknown
Longitude
Unknown
Altitude
Unknown
Speed
Unknown
Apparent Right ascension
Unknown
Apparent Declination
Unknown
Sunlit
N/A
Visualization observer readout
Local Sidereal Time
21:43:55
Azimuth
Unknown
Elevation
Unknown
Doppler factor
Unknown
Orbital elements
Apogee altitude
35,803.187 km
Perigee altitude
35,771.765 km
Semi-major axis
42,165.613 km
Eccentricity
0.00037
Inclination
4.5561°
RAAN
280.2986°
Arg. of periapsis
126.8093°
True anomaly
267.84713°
Mean anomaly
267.8898°
Eccentric anomaly
267.86847°
Mean motion
0.25067 °/min
Orbital period
1,436.14 mins
BSTAR
0
Loading maneuver chart data...
Computing Atmospheric mass density...
Loading historical data...
Loading historical data...
Loading historical data...
Loading historical data...
Loading historical data...
Loading historical data...
Loading historical data...
Other satellites on launch #84 in the year 2025 (2025-04-27 UTC)

Documentation

Showing up to 5 results
|